Theta_e
315 317 317 318 317 317 317 317 319 317 317 315 313 313 316 323 330 330 333 335 336 334 333 335 337 338 336 334 333 332 332 331 330 330 329 324 323 319 315 313 311 309 308 308
315 317 316 316 316 317 317 317 317 317 317 315 314 313 313 315 328 328 330 332 335 335 335 334 336 337 336 334 332 332 333 331 330 329 328 325 325 326 321 315 312 310 308 308
316 316 315 315 316 316 316 317 316 318 317 315 314 314 313 314 322 328 328 332 332 334 336 336 337 338 335 334 333 332 331 330 331 331 329 324 324 326 326 318 313 310 308 308
315 315 315 315 315 316 317 316 317 317 319 316 316 313 314 312 314 323 328 329 331 332 334 333 335 336 334 334 334 332 332 329 330 330 330 327 326 325 323 318 315 311 308 308
316 315 315 316 315 314 315 312 313 315 315 317 317 317 314 313 313 315 324 328 330 331 332 334 333 332 334 334 333 332 332 329 329 330 329 327 324 323 323 320 316 310 308 308
314 312 313 315 316 313 312 312 313 314 315 314 316 317 316 313 313 314 321 326 329 330 331 333 328 330 334 333 333 332 331 330 328 328 328 326 325 321 321 319 313 309 308 308
315 314 313 314 316 314 312 312 319 317 320 315 308 314 316 316 314 314 315 323 328 328 330 332 334 334 332 332 333 332 331 330 329 328 327 326 324 322 322 316 310 309 308 308
314 315 314 313 315 315 312 314 315 319 314 314 312 314 315 314 315 317 317 318 326 328 329 331 334 335 333 332 332 331 331 331 329 328 328 326 324 321 319 312 310 308 308 307
313 313 312 315 315 313 314 314 314 317 314 311 313 314 314 313 314 315 316 316 320 331 331 332 333 334 333 332 331 330 330 330 328 329 328 326 324 319 314 310 309 308 308 306
311 312 310 311 311 313 313 311 314 316 317 316 313 313 315 316 314 314 313 315 317 329 331 333 333 333 333 333 332 330 329 330 329 329 328 328 323 316 310 310 308 308 307 304
309 308 310 309 312 314 312 311 313 313 315 315 313 313 313 315 315 314 312 314 315 319 325 329 331 331 332 332 331 330 329 329 329 328 327 326 322 315 310 309 308 307 305 303
307 308 308 309 310 312 313 313 313 315 315 312 309 313 312 311 313 312 312 312 313 314 315 317 323 328 330 331 330 328 327 327 327 327 326 323 321 316 311 309 308 306 303 303
306 307 308 310 308 307 308 312 313 314 315 316 317 313 310 310 310 311 312 312 311 311 310 312 313 319 326 329 329 326 325 324 325 326 324 322 319 315 311 308 307 304 303 303
307 307 308 311 310 310 308 309 311 311 311 314 314 313 313 310 309 311 311 311 311 311 310 309 311 311 319 325 326 326 323 323 324 323 322 321 318 314 310 308 305 302 303 302
306 307 307 307 308 307 308 309 309 311 312 311 312 312 313 313 313 313 311 310 310 309 310 309 309 310 311 317 321 320 319 319 320 320 320 318 317 311 308 306 303 302 302 301
307 307 307 306 307 306 307 307 307 307 311 312 312 311 311 311 312 310 309 309 308 308 309 308 308 309 310 313 317 318 317 317 318 319 318 317 311 308 306 304 302 302 301 301
307 306 306 307 306 305 304 306 306 307 306 308 309 309 309 308 308 308 308 308 307 307 307 308 308 308 310 311 313 315 315 315 316 315 313 310 308 307 304 302 301 301 301 300
308 307 307 306 304 304 305 305 305 305 306 306 307 307 307 307 306 306 305 305 305 305 306 306 308 308 308 309 310 310 311 312 312 312 310 308 307 304 302 301 301 301 300 298
307 307 307 306 304 305 305 303 303 304 305 306 306 306 306 305 305 305 305 304 305 304 305 306 307 307 307 308 308 308 308 308 308 308 307 306 305 303 301 301 301 300 299 297
303 305 306 304 306 306 304 303 303 303 303 303 305 305 303 303 305 303 304 304 304 305 305 305 305 305 306 307 308 307 306 306 306 306 306 305 304 302 301 301 300 300 298 297
303 303 305 305 306 305 303 302 303 305 305 303 304 304 304 304 304 304 303 303 303 304 304 304 304 305 305 306 307 306 306 305 305 305 304 304 303 302 301 300 300 299 297 297
304 303 304 304 305 305 303 302 303 303 304 304 304 304 304 303 303 303 303 303 304 304 303 303 304 304 304 305 305 306 305 304 304 304 303 303 302 301 300 300 299 298 297 296
305 305 305 304 305 303 303 302 303 303 304 303 303 303 303 303 303 303 303 303 303 303 303 304 303 303 303 304 304 304 304 303 303 302 302 302 301 300 299 299 299 297 296 295
302 303 304 305 305 303 304 304 304 303 302 302 302 302 302 302 302 302 302 302 302 302 303 302 303 303 303 303 303 304 303 302 302 301 301 301 300 299 299 298 298 297 296 295
302 302 303 304 304 303 304 304 302 301 302 302 302 302 301 302 302 302 302 301 301 301 301 301 301 302 302 303 303 303 304 302 301 300 300 300 299 299 298 298 298 297 295 295
299 303 303 305 303 305 305 300 301 300 300 300 301 302 302 301 300 300 301 301 301 301 300 300 300 301 301 301 301 302 303 302 301 300 300 300 299 298 298 297 296 294 293 293
Wind_Speed
4 4 5 4 7 9 8 9 7 7 6 4 9 12 14 12 9 9 8 13 21 29 34 32 29 27 27 30 29 26 26 24 21 17 16 13 9 8 7 7 6 5 5 4
4 6 5 4 5 7 8 9 8 8 6 4 8 12 17 12 10 16 15 17 20 26 32 33 32 33 34 31 27 27 26 24 22 18 16 12 10 9 9 8 8 8 6 5
5 3 3 4 6 9 10 8 8 10 5 6 7 11 11 15 15 18 16 20 22 26 36 40 36 36 31 32 30 28 26 25 22 20 19 15 12 13 14 11 11 9 8 6
5 2 4 7 9 9 9 8 6 7 6 3 2 5 10 13 18 10 18 19 22 28 30 31 38 35 33 35 31 29 29 27 24 23 21 18 15 15 14 14 12 10 8 8
3 2 4 7 11 9 7 5 6 8 6 5 8 4 7 7 17 12 12 25 27 29 31 33 38 38 33 36 35 32 31 29 27 26 22 20 18 15 15 14 12 11 10 10
11 2 3 4 7 4 6 5 8 6 2 3 9 6 6 9 17 18 18 27 32 30 33 32 34 35 34 37 37 36 35 33 29 28 24 23 20 20 20 17 14 13 12 11
4 9 4 6 4 6 4 5 1 3 3 5 1 1 11 11 7 7 17 28 33 33 32 33 33 37 32 35 39 39 37 35 33 31 28 26 24 23 21 18 14 15 13 13
3 3 11 9 6 4 7 5 3 5 3 4 2 6 6 12 15 20 9 15 36 36 35 37 37 39 39 39 40 40 39 37 35 33 31 29 27 25 22 19 15 15 15 14
6 4 5 4 3 4 4 5 1 2 6 1 5 6 7 10 8 4 8 10 11 35 35 39 40 41 41 41 41 41 39 36 35 35 32 29 29 27 23 20 17 17 16 15
2 1 6 5 3 6 4 3 2 2 3 4 6 7 7 1 7 8 7 14 15 27 32 34 37 39 41 44 43 38 36 36 35 34 33 30 29 26 24 20 18 17 16 15
3 5 3 5 8 8 4 3 5 2 4 3 3 5 2 2 4 8 4 17 18 20 20 30 33 34 35 36 37 36 37 37 37 36 35 32 29 26 25 21 19 17 17 16
6 3 5 10 7 8 11 8 10 3 5 4 3 9 8 3 3 3 4 5 2 5 9 15 20 26 33 36 35 35 35 38 39 37 34 33 29 27 26 21 20 19 18 17
7 4 2 1 1 2 5 7 9 8 7 11 4 5 2 4 3 4 7 5 3 5 10 17 20 22 29 33 35 34 33 37 38 38 37 34 32 29 25 22 22 20 19 18
7 3 7 6 4 5 4 8 12 11 5 7 13 13 12 6 7 4 11 11 7 9 9 12 20 24 26 30 34 35 35 38 40 40 37 36 33 28 25 24 23 22 21 18
4 6 7 13 13 9 9 8 11 15 20 9 22 13 14 17 16 14 8 8 7 8 11 12 15 20 26 29 30 31 34 39 40 39 38 36 31 28 27 26 25 23 20 18
4 4 4 6 8 11 13 14 14 17 19 19 22 21 19 22 28 13 4 6 7 7 9 13 13 17 23 29 32 34 36 38 39 38 37 34 32 31 30 28 25 22 21 20
7 3 3 5 4 2 7 19 21 21 15 20 17 25 1 7 4 3 3 4 5 6 6 8 11 16 20 23 29 32 34 35 36 35 35 34 34 31 30 27 24 23 23 22
7 9 3 4 3 6 8 3 10 17 21 17 20 17 5 3 4 4 7 8 9 8 7 8 10 11 16 19 22 26 31 33 33 34 34 35 33 31 28 26 25 25 24 23
9 8 4 4 8 10 17 4 4 6 6 11 17 10 9 8 4 4 3 4 3 3 7 3 3 6 8 14 18 22 26 28 30 33 33 33 31 29 28 28 27 25 24 24
2 4 6 4 5 6 1 3 2 3 5 5 2 4 6 9 3 3 3 3 4 5 5 1 2 6 8 10 16 20 26 29 32 34 34 31 29 29 29 28 26 25 26 25
4 3 13 11 10 5 3 5 5 1 3 7 13 10 7 3 4 5 4 5 5 6 6 5 4 2 5 11 15 20 25 30 29 30 31 31 29 30 28 27 27 28 28 27
11 9 6 7 5 13 7 4 2 1 9 8 10 10 10 7 7 6 6 7 8 8 8 7 6 5 4 7 15 20 23 24 26 27 30 30 30 30 29 28 29 30 29 28
6 5 5 8 7 1 10 14 9 7 8 10 9 8 7 8 7 8 9 9 9 8 8 9 9 9 7 7 10 17 20 22 25 27 29 31 30 30 30 31 32 31 30 29
3 2 0 1 2 6 11 8 10 9 8 7 7 8 9 9 9 11 12 11 11 10 9 9 10 10 10 10 9 12 16 20 25 27 28 30 32 31 31 32 31 31 31 31
2 5 2 8 5 12 9 14 7 7 5 7 7 8 9 11 13 14 13 13 12 12 13 14 13 12 12 12 12 10 12 18 24 26 27 30 31 32 32 32 31 31 30 30
6 6 5 3 10 3 1 6 9 8 8 6 5 7 8 10 10 12 14 15 16 16 15 13 14 12 11 12 12 10 12 18 21 24 27 29 31 33 32 31 30 28 27 27
Wind_Direction
291 291 253 216 227 274 291 294 265 278 284 272 242 255 238 222 204 245 248 209 200 190 202 200 190 203 207 206 199 201 203 205 214 212 212 213 220 235 247 257 269 272 283 298
254 248 298 257 310 297 277 283 287 266 274 206 273 267 249 249 196 209 211 219 204 185 200 189 197 206 210 206 206 207 209 213 216 217 215 207 221 251 256 256 258 263 269 281
250 285 292 264 267 255 259 251 273 295 293 298 267 277 255 239 220 195 211 217 208 196 195 196 195 205 213 204 206 213 215 218 221 216 217 207 216 245 257 258 257 260 262 271
282 291 295 278 253 249 262 346 285 287 306 259 237 281 238 232 235 188 193 212 213 208 207 203 199 208 213 206 208 214 218 220 221 222 218 220 232 241 249 253 255 253 254 263
262 228 231 257 252 261 232 14 308 291 248 308 285 296 266 269 226 225 189 205 215 211 212 201 200 217 218 206 208 214 220 221 222 224 225 225 226 235 246 250 257 258 255 260
262 95 257 212 309 284 322 296 269 256 112 261 228 228 252 221 226 224 204 202 207 211 214 215 211 218 222 215 210 214 218 218 221 226 225 230 229 225 234 240 244 249 254 252
305 206 201 219 231 211 228 291 205 259 217 226 180 214 250 282 266 262 220 195 200 208 214 208 207 208 211 219 215 216 216 218 217 221 225 225 227 227 236 240 241 246 249 254
198 292 183 180 220 186 204 206 175 243 213 276 132 233 251 233 252 254 290 209 195 200 204 208 198 205 212 213 215 216 217 218 219 220 221 224 226 228 234 237 242 242 244 251
189 219 96 197 220 136 266 221 331 297 270 314 214 261 286 263 271 278 232 264 230 193 199 204 206 204 205 209 218 220 219 217 219 221 220 223 225 226 230 233 238 235 238 250
337 212 185 140 24 261 209 349 197 191 264 256 267 250 231 195 241 237 228 241 235 206 198 201 204 206 209 214 221 222 221 218 218 219 220 222 225 226 228 231 233 233 237 241
246 165 159 112 205 188 176 209 218 282 241 228 307 269 19 70 292 287 285 229 232 207 211 209 209 206 213 218 220 223 221 216 216 218 221 221 221 224 227 231 229 230 234 235
223 239 212 205 220 200 200 199 201 181 250 228 202 272 273 124 30 53 41 79 144 168 199 217 199 202 204 210 220 223 217 214 216 219 221 222 221 222 227 227 227 226 229 230
162 237 239 188 51 184 230 224 229 222 249 248 238 262 55 87 216 151 147 160 165 238 227 222 221 207 208 209 210 215 219 217 217 219 220 220 221 220 222 224 223 224 226 226
151 242 217 195 162 132 207 218 220 210 213 228 233 255 275 249 238 230 206 201 226 242 253 223 216 217 211 213 218 223 224 220 218 218 218 219 219 220 220 220 222 221 222 221
196 231 233 265 271 265 236 221 215 216 230 212 252 246 253 245 262 267 216 209 224 245 251 238 224 218 214 211 212 216 217 218 217 216 217 218 219 216 216 219 219 217 217 216
219 268 238 269 260 258 252 242 239 238 233 238 251 262 256 283 291 284 318 259 238 245 251 263 246 225 219 214 214 215 218 220 219 218 218 217 213 211 214 217 216 215 212 212
178 206 241 254 225 264 285 232 227 239 233 230 233 238 124 279 310 5 16 347 317 286 273 265 259 229 226 221 220 219 221 223 221 218 215 212 211 213 216 215 214 213 212 210
191 191 241 256 230 236 243 185 200 222 243 234 244 250 219 261 99 24 319 301 284 283 294 292 268 252 230 231 227 223 223 224 221 218 214 213 213 215 214 213 213 211 210 210
208 194 214 213 225 274 303 182 181 187 269 218 227 248 223 140 89 106 71 72 39 325 232 202 231 268 246 232 230 225 224 224 219 216 214 215 216 214 214 215 213 212 211 210
353 252 216 179 223 230 294 121 69 51 272 14 73 153 124 118 138 236 142 94 89 75 87 150 222 227 243 243 234 226 223 223 221 218 219 219 218 218 219 217 214 214 214 214
186 200 225 218 239 263 155 159 153 165 289 37 78 83 97 81 74 93 38 18 27 42 41 36 28 355 222 226 237 233 232 233 231 223 222 221 220 222 221 218 215 215 213 213
174 177 205 216 251 250 152 123 166 123 69 73 75 77 80 63 38 38 25 9 1 354 353 353 349 336 303 234 231 242 241 239 236 229 226 224 223 221 219 217 215 215 216 216
186 199 181 191 200 46 45 90 72 38 54 44 50 42 32 20 17 2 352 347 339 330 321 318 318 315 311 293 254 244 245 239 237 233 229 226 224 220 219 216 216 214 214 215
355 97 90 114 196 152 92 79 63 60 58 52 37 13 2 356 346 341 334 333 330 325 320 314 310 307 304 299 283 260 241 236 232 233 228 225 223 219 217 217 219 219 218 217
174 130 210 274 265 103 126 29 53 62 33 10 1 359 348 333 327 329 327 329 332 331 323 315 309 301 296 292 292 283 250 230 229 233 233 228 225 222 219 221 223 223 226 229
184 192 205 212 79 29 308 35 10 44 47 36 3 343 336 334 323 314 310 312 316 315 319 314 312 305 296 287 285 277 242 232 236 235 232 229 226 223 222 222 221 222 227 227